Location: Aufkirchen
(47.9603°N, 11.3653°E)
Time: 02:03:35
(UTC+01:00)

NOAA 18 - Visible Passes

Search period start: 24 January 2021 00:00
Search period end: 03 February 2021 00:00
Orbit: 840 x 860 km, 99.0° (Epoch: 23 January)

Date Brightness Start Highest point End Pass type
(mag) Time Alt. Az. Time Alt. Az. Time Alt. Az.
26 Jan 7.6 20:08:40 10° N 20:08:40 10° N 20:08:43 10° N visible
27 Jan 7.6 19:56:32 10° N 19:56:32 10° N 19:56:38 10° N visible
28 Jan 7.5 19:44:25 10° NNE 19:44:25 10° NNE 19:44:28 10° NNE visible
29 Jan 7.9 21:14:16 11° NNW 21:14:16 11° NNW 21:14:22 10° NNW visible
30 Jan 7.8 21:02:07 12° N 21:02:07 12° N 21:02:28 10° N visible
31 Jan 7.6 20:50:00 13° N 20:50:00 13° N 20:50:31 10° N visible
01 Feb 7.5 20:37:51 14° N 20:37:51 14° N 20:38:33 10° N visible
02 Feb 7.4 20:25:43 14° N 20:25:43 14° N 20:26:33 10° N visible
